FW4298 Weather Reports


time (UTC)temp
F
wind
direction
speed
knots
gust
knots
rain 1hr
in
rain 24hr
in
rain mn
in
humidity
%
barometer
mb
20260506051254 75 166 6.1 14.8 0.00 0.00 0.00 93 1009.6
20260506050755 76 165 5.2 14.8 0.00 0.00 0.00 93 1009.8
20260506050255 75 173 4.3 9.6 0.00 0.00 0.00 93 1009.9
20260506044752 75 201 4.3 10.4 0.00 0.00 0.00 92 1009.5
20260506044252 75 190 4.3 12.2 0.00 0.00 0.00 92 1009.5
20260506043752 76 184 4.3 12.2 0.00 0.00 0.00 92 1009.6
20260506043252 76 197 4.3 9.6 0.00 0.00 0.00 92 1009.5
20260506043017 76 167 5.2 10.4 0.00 0.00 0.00 92 1009.6
20260506042531 76 160 5.2 10.4 0.00 0.00 0.00 92 1009.8
20260506042029 76 131 5.2 9.6 0.00 0.00 0.00 91 1009.3
20260506042003 76 157 5.2 9.6 0.00 0.00 0.00 91 1009.5
20260506040745 76 138 4.3 9.6 0.00 0.00 0.00 91 1009.4
20260506040242 76 198 4.3 9.6 0.00 0.00 0.00 91 1009.3
20260506035739 76 194 4.3 9.6 0.00 0.00 0.00 91 1009.3
20260506035239 76 165 4.3 8.7 0.00 0.00 0.00 90 1009.1
20260506034740 76 167 2.6 6.1 0.00 0.00 0.00 90 1009.3
20260506034240 76 155 2.6 6.1 0.00 0.00 0.00 89 1009.3
20260506033739 76 150 2.6 6.1 0.00 0.00 0.00 89 1009.1
20260506033238 76 155 2.6 7.8 0.00 0.00 0.00 89 1009.1
20260506032737 76 184 2.6 7.8 0.00 0.00 0.00 89 1009.0
20260506032459 77 155 2.6 8.7 0.00 0.00 0.00 88 1009.1
20260506031735 77 169 2.6 8.7 0.00 0.00 0.00 88 1009.0
20260506031233 77 175 3.5 7.0 0.00 0.00 0.00 88 1009.0
20260506030734 77 165 3.5 7.0 0.00 0.00 0.00 88 1008.9
20260506030233 77 155 3.5 8.7 0.00 0.00 0.00 88 1008.8
20260506025734 77 169 3.5 8.7 0.00 0.00 0.00 88 1008.8
20260506025233 77 161 3.5 6.1 0.00 0.00 0.00 88 1008.7
20260506025000 77 186 3.5 6.1 0.00 0.00 0.00 87 1008.7
20260506024234 77 165 3.5 6.1 0.00 0.00 0.00 87 1008.7
20260506023736 77 147 3.5 7.0 0.00 0.00 0.00 87 1008.6
20260506023506 78 178 3.5 7.0 0.00 0.00 0.00 87 1008.4
20260506022734 78 150 3.5 7.0 0.00 0.00 0.00 87 1008.4
20260506022234 78 160 3.5 7.0 0.00 0.00 0.00 87 1008.4
20260506021733 78 156 3.5 7.0 0.00 0.00 0.00 86 1008.3
20260506021231 78 134 2.6 7.0 0.00 0.00 0.00 86 1008.1
20260506020729 78 176 2.6 6.1 0.00 0.00 0.00 86 1008.2
20260506020228 78 154 2.6 6.1 0.00 0.00 0.00 85 1008.1
20260506015726 78 153 2.6 5.2 0.00 0.00 0.00 85 1008.1
20260506015225 78 152 1.7 5.2 0.00 0.00 0.00 84 1008.0
20260506014723 78 155 1.7 5.2 0.00 0.00 0.00 84 1007.9
20260506014225 79 163 2.6 6.1 0.00 0.00 0.00 84 1008.0
20260506013723 79 165 3.5 7.0 0.00 0.00 0.00 83 1007.8
20260506013224 79 146 3.5 7.8 0.00 0.00 0.00 83 1007.7
20260506013215 79 164 3.5 7.8 0.00 0.00 0.00 83 1007.7
20260506012221 79 150 3.5 8.7 0.00 0.00 0.00 82 1007.6
20260506011721 80 168 3.5 8.7 0.00 0.00 0.00 82 1007.6
20260506011442 80 163 4.3 9.6 0.00 0.00 0.00 82 1007.5
20260506010947 80 158 4.3 9.6 0.00 0.00 0.00 81 1007.5
20260506010213 80 159 3.5 9.6 0.00 0.00 0.00 81 1007.4
20260506005713 80 168 3.5 9.6 0.00 0.00 0.00 80 1007.4
20260506005213 81 155 4.3 8.7 0.00 0.00 0.00 80 1007.4
20260506004713 81 211 4.3 10.4 0.00 0.00 0.00 80 1007.4
20260506004213 81 136 4.3 12.2 0.00 0.00 0.00 79 1007.5
20260506003713 81 163 4.3 12.2 0.00 0.00 0.00 79 1007.5
20260506003449 82 144 5.2 12.2 0.00 0.00 0.00 79 1007.6
20260506002937 82 163 6.1 12.2 0.00 0.00 0.00 78 1007.6
20260506002211 82 0 4.3 10.4 0.00 0.00 0.00 78 1007.5
20260506001942 82 158 3.5 8.7 0.00 0.00 0.00 79 1007.6
20260506001208 82 193 4.3 11.3 0.00 0.00 0.00 79 1007.6
20260506000706 82 140 4.3 11.3 0.00 0.00 0.00 78 1007.6
20260506000440 82 180 5.2 12.2 0.00 0.00 0.00 79 1007.6
20260505235707 82 160 5.2 12.2 0.00 0.00 0.00 78 1007.6
20260505235205 82 156 4.3 10.4 0.00 0.00 0.00 77 1007.7
20260505234706 83 157 3.5 9.6 0.00 0.00 0.00 77 1007.6
20260505234205 83 155 4.3 9.6 0.00 0.00 0.00 77 1007.5
20260505233703 83 175 4.3 10.4 0.00 0.00 0.00 77 1007.5
20260505233157 83 197 6.1 13.0 0.00 0.00 0.00 76 1007.4
20260505232926 83 155 5.2 13.0 0.00 0.00 0.00 76 1007.4
20260505232144 83 155 5.2 10.4 0.00 0.00 0.00 76 1007.4
20260505231639 83 159 5.2 10.4 0.00 0.00 0.00 76 1007.3
20260505231134 83 186 5.2 11.3 0.00 0.00 0.00 76 1007.2
20260505230902 83 211 4.3 11.3 0.00 0.00 0.00 76 1007.3
20260505230402 83 160 5.2 10.4 0.00 0.00 0.00 76 1007.2
20260505225635 84 206 6.1 10.4 0.00 0.00 0.00 75 1007.2
20260505225135 84 176 5.2 10.4 0.00 0.00 0.00 75 1007.1
20260505224634 84 151 5.2 10.4 0.00 0.00 0.00 75 1007.1
20260505224135 84 170 5.2 10.4 0.00 0.00 0.00 75 1007.1
20260505223900 85 120 5.2 10.4 0.00 0.00 0.00 74 1007.1
20260505223136 85 201 5.2 10.4 0.00 0.00 0.00 74 1007.2
20260505222634 85 164 5.2 11.3 0.00 0.00 0.00 74 1007.1
20260505222135 85 157 7.0 12.2 0.00 0.00 0.00 74 1007.1
20260505221635 85 154 7.0 12.2 0.00 0.00 0.00 74 1007.0
20260505221134 85 173 6.1 12.2 0.00 0.00 0.00 74 1006.9
20260505220634 85 177 6.1 13.9 0.00 0.00 0.00 73 1006.9
20260505220135 85 121 7.0 13.9 0.00 0.00 0.00 74 1007.0
20260505215635 85 178 7.0 12.2 0.00 0.00 0.00 73 1007.0
20260505215133 86 146 6.1 12.2 0.00 0.00 0.00 72 1007.3
20260505214634 86 126 6.1 13.9 0.00 0.00 0.00 72 1007.2
20260505214625 86 181 6.1 13.9 0.00 0.00 0.00 72 1007.3
20260505213621 86 184 5.2 13.0 0.00 0.00 0.00 72 1007.2
20260505213117 87 197 6.1 13.0 0.00 0.00 0.00 71 1007.2
20260505212617 87 151 6.1 11.3 0.00 0.00 0.00 71 1007.1
20260505212351 87 180 6.1 13.0 0.00 0.00 0.00 72 1007.4
20260505211617 87 179 7.0 13.0 0.00 0.00 0.00 71 1007.4
20260505211117 87 137 7.0 13.0 0.00 0.00 0.00 72 1007.4
20260505210617 87 174 7.0 13.0 0.00 0.00 0.00 71 1007.5
20260505210117 87 142 7.0 12.2 0.00 0.00 0.00 73 1007.8
20260505205617 86 157 7.0 14.8 0.00 0.00 0.00 73 1007.8
20260505205117 86 180 7.0 14.8 0.00 0.00 0.00 74 1007.8
20260505204617 86 176 6.1 11.3 0.00 0.00 0.00 72 1007.8
20260505204117 86 144 5.2 10.4 0.00 0.00 0.00 73 1008.0
20260505203617 86 194 5.2 13.9 0.00 0.00 0.00 73 1008.0
20260505203117 86 182 5.2 13.9 0.00 0.00 0.00 72 1007.9
20260505202617 85 226 5.2 13.9 0.00 0.00 0.00 72 1008.0
20260505202117 85 166 7.0 15.6 0.00 0.00 0.00 74 1008.0
20260505201624 85 182 6.1 15.6 0.00 0.00 0.00 72 1008.2
20260505201118 85 159 6.1 14.8 0.00 0.00 0.00 74 1008.3
20260505200620 85 151 7.0 14.8 0.00 0.00 0.00 74 1008.3
20260505200114 85 156 6.1 14.8 0.00 0.00 0.00 74 1008.4
20260505195614 85 244 7.0 14.8 0.00 0.00 0.00 73 1008.4
20260505195114 85 195 6.1 14.8 0.00 0.00 0.00 73 1008.4
20260505194615 85 182 6.1 14.8 0.00 0.00 0.00 74 1008.4
20260505194114 85 204 6.1 13.0 0.00 0.00 0.00 74 1008.5
20260505193615 84 193 6.1 13.0 0.00 0.00 0.00 75 1008.5
20260505193118 84 135 6.1 13.0 0.00 0.00 0.00 76 1008.6
20260505193109 83 155 6.1 13.0 0.00 0.00 0.00 75 1008.7
20260505192115 83 165 5.2 13.9 0.00 0.00 0.00 75 1008.7
20260505191615 83 199 5.2 13.9 0.00 0.00 0.00 75 1008.7
20260505191115 83 239 7.0 16.5 0.00 0.00 0.00 74 1008.8
20260505190615 83 184 7.0 16.5 0.00 0.00 0.00 76 1008.8
20260505190115 83 176 6.1 12.2 0.00 0.00 0.00 75 1008.9
20260505185615 82 184 6.1 12.2 0.00 0.00 0.00 75 1009.0
20260505185115 82 196 5.2 12.2 0.00 0.00 0.00 77 1009.1
20260505184615 82 237 5.2 12.2 0.00 0.00 0.00 77 1009.3
20260505184114 81 199 6.1 12.2 0.00 0.00 0.00 77 1009.4
20260505183614 81 188 5.2 11.3 0.00 0.00 0.00 78 1009.4
20260505183340 80 202 5.2 11.3 0.00 0.00 0.00 78 1009.6
20260505182614 81 184 6.1 13.9 0.00 0.00 0.00 79 1009.6
20260505182115 80 188 7.0 13.9 0.00 0.00 0.00 79 1009.9
20260505181614 80 221 6.1 11.3 0.00 0.00 0.00 80 1009.9
20260505181117 80 153 6.1 11.3 0.00 0.00 0.00 79 1009.9
20260505180615 80 205 6.1 12.2 0.00 0.00 0.00 79 1009.9
20260505180117 80 146 6.1 13.9 0.00 0.00 0.00 80 1009.9
20260505175615 79 202 6.1 13.9 0.00 0.00 0.00 81 1010.0
20260505175114 79 198 6.1 12.2 0.00 0.00 0.00 82 1010.0
20260505174614 78 225 5.2 12.2 0.00 0.00 0.00 82 1010.1
20260505174340 77 199 5.2 12.2 0.00 0.00 0.00 84 1010.2
20260505173839 77 204 5.2 13.0 0.00 0.00 0.00 84 1010.3
20260505173114 76 189 5.2 13.0 0.00 0.00 0.00 85 1010.3
20260505172612 76 188 5.2 10.4 0.00 0.00 0.00 85 1010.3
20260505172559 76 198 5.2 12.2 0.00 0.00 0.00 85 1010.3
20260505171613 76 243 4.3 12.2 0.00 0.00 0.00 85 1010.4
20260505171112 76 251 4.3 10.4 0.00 0.00 0.00 86 1010.4
20260505170613 75 169 5.2 10.4 0.00 0.00 0.00 86 1010.4
20260505170110 75 217 5.2 13.0 0.00 0.00 0.00 87 1010.4
20260505165611 75 185 5.2 13.0 0.00 0.00 0.00 87 1010.4
20260505165109 75 178 5.2 12.2 0.00 0.00 0.00 87 1010.3
20260505164609 74 213 6.1 12.2 0.00 0.00 0.00 88 1010.4
20260505164109 74 190 5.2 11.3 0.00 0.00 0.00 88 1010.2
20260505163609 74 232 4.3 11.3 0.00 0.00 0.00 89 1010.3
20260505163107 74 158 5.2 11.3 0.00 0.00 0.00 89 1010.4
20260505162608 74 228 5.2 11.3 0.00 0.00 0.00 89 1010.3
20260505162327 74 200 4.3 11.3 0.00 0.00 0.00 89 1010.4
20260505161605 73 236 3.5 10.4 0.00 0.00 0.00 89 1010.4
20260505161106 73 254 4.3 12.2 0.00 0.00 0.00 90 1010.4
20260505160606 73 228 5.2 12.2 0.00 0.00 0.00 90 1010.4
20260505160105 73 215 6.1 13.9 0.00 0.00 0.00 90 1010.3
20260505153106 72 234 4.3 9.6 0.00 0.00 0.00 91 1010.3
20260505152832 72 197 4.3 11.3 0.00 0.00 0.00 91 1010.2
20260505152106 72 165 4.3 11.3 0.00 0.00 0.00 91 1010.2
20260505151607 72 231 5.2 11.3 0.00 0.00 0.00 91 1010.2
20260505151106 72 200 6.1 11.3 0.00 0.00 0.00 91 1010.2
20260505150604 72 198 5.2 11.3 0.00 0.00 0.00 91 1010.2
20260505140536 71 194 6.1 13.9 0.00 0.00 0.00 92 1009.5
20260505130253 71 173 5.2 11.3 0.00 0.00 0.00 92 1009.1
20260505125014 71 200 5.2 12.2 0.00 0.00 0.00 92 1009.0
20260505124513 71 214 5.2 12.2 0.00 0.00 0.00 92 1009.0
20260505124459 71 237 5.2 10.4 0.00 0.00 0.00 92 1009.0
20260505123514 70 192 5.2 13.0 0.00 0.00 0.00 92 1008.9
20260505123013 70 198 5.2 13.0 0.00 0.00 0.00 92 1008.7
20260505122512 70 186 6.1 15.6 0.00 0.00 0.00 92 1008.7
20260505122010 70 173 6.1 15.6 0.00 0.00 0.00 92 1008.6
20260505121510 70 213 5.2 10.4 0.00 0.00 0.00 92 1008.4
20260505121010 70 173 5.2 10.4 0.00 0.00 0.00 92 1008.4
20260505120509 70 192 5.2 10.4 0.00 0.00 0.00 92 1008.3
20260505120010 70 177 4.3 9.6 0.00 0.00 0.00 92 1008.4
20260505115507 70 180 4.3 8.7 0.00 0.00 0.00 92 1008.3
20260505115008 70 198 6.1 12.2 0.00 0.00 0.00 92 1008.2
20260505114508 70 208 6.1 12.2 0.00 0.00 0.00 92 1008.2
20260505114007 70 157 5.2 11.3 0.00 0.00 0.00 92 1008.2
20260505113506 70 142 5.2 10.4 0.00 0.00 0.00 92 1008.2
20260505113006 70 156 4.3 12.2 0.00 0.00 0.00 92 1008.2
20260505112503 70 169 4.3 12.2 0.00 0.00 0.00 92 1008.2
20260505112002 70 190 4.3 11.3 0.00 0.00 0.00 92 1008.3
20260505111501 70 202 4.3 9.6 0.00 0.00 0.00 92 1008.2
20260505111002 70 193 4.3 11.3 0.00 0.00 0.00 92 1008.2
20260505110503 70 155 4.3 11.3 0.00 0.00 0.00 92 1008.2
20260505102001 70 188 5.2 12.2 0.00 0.00 0.00 92 1008.3
20260505101501 70 184 5.2 11.3 0.00 0.00 0.00 92 1008.4
20260505101001 70 191 5.2 11.3 0.00 0.00 0.00 92 1008.4
20260505100723 70 228 6.1 13.0 0.00 0.00 0.00 91 1008.4
20260505100001 70 192 6.1 13.0 0.00 0.00 0.00 91 1008.4
20260505095729 70 194 5.2 12.2 0.00 0.00 0.00 91 1008.5
20260505095002 70 164 5.2 14.8 0.00 0.00 0.00 91 1008.6
20260505094501 70 225 6.1 14.8 0.00 0.00 0.00 91 1008.5
20260505094001 70 159 6.1 12.2 0.00 0.00 0.00 91 1008.5
20260505093502 70 182 5.2 11.3 0.00 0.00 0.00 91 1008.5
20260505093001 70 159 5.2 13.9 0.00 0.00 0.00 91 1008.5
20260505092727 70 207 5.2 13.9 0.00 0.00 0.00 91 1008.6
20260505092001 70 177 5.2 13.0 0.00 0.00 0.00 91 1008.5
20260505091501 70 203 6.1 13.0 0.00 0.00 0.00 91 1008.6
20260505091001 70 162 5.2 13.0 0.00 0.00 0.00 91 1008.6
20260505090500 70 203 5.2 11.3 0.00 0.00 0.00 91 1008.7
20260505090001 70 206 5.2 11.3 0.00 0.00 0.00 91 1008.8
20260505085501 70 146 4.3 9.6 0.00 0.00 0.00 91 1008.8
20260505085002 70 186 4.3 9.6 0.00 0.00 0.00 91 1008.8
20260505084501 70 177 5.2 12.2 0.00 0.00 0.00 91 1008.8
20260505084001 70 225 5.2 12.2 0.00 0.00 0.00 91 1008.9
20260505083501 70 211 5.2 10.4 0.00 0.00 0.00 91 1008.9
20260505083001 70 189 4.3 10.4 0.00 0.00 0.00 91 1008.9
20260505082502 70 199 5.2 13.9 0.00 0.00 0.00 91 1008.9
20260505082001 70 197 6.1 16.5 0.00 0.00 0.00 91 1008.7
20260505081502 70 170 6.1 16.5 0.00 0.00 0.00 91 1008.9
20260505081001 70 194 6.1 13.0 0.00 0.00 0.00 91 1009.0
20260505080502 70 211 5.2 13.9 0.00 0.00 0.00 90 1009.0
20260505080001 70 192 6.1 13.9 0.00 0.00 0.00 91 1009.0
20260505075508 71 196 6.1 13.9 0.00 0.00 0.00 91 1009.0
20260505075004 71 208 6.1 13.9 0.00 0.00 0.00 91 1009.2
20260505074459 71 165 7.0 13.0 0.00 0.00 0.00 90 1009.2
20260505073953 71 188 7.0 13.0 0.00 0.00 0.00 90 1009.2
20260505073440 71 210 7.0 14.8 0.00 0.00 0.00 90 1009.4
20260505073219 71 238 7.0 14.8 0.00 0.00 0.00 90 1009.4
20260505072445 71 188 7.0 14.8 0.00 0.00 0.00 90 1009.4
20260505071944 71 188 7.8 16.5 0.00 0.00 0.00 90 1009.4
20260505071441 71 180 7.8 16.5 0.00 0.00 0.00 90 1009.5
20260505070941 71 184 6.1 14.8 0.00 0.00 0.00 90 1009.6
20260505070440 71 198 5.2 14.8 0.00 0.00 0.00 90 1009.9
20260505065936 71 175 5.2 13.0 0.00 0.00 0.00 90 1009.9
20260505065435 71 162 6.1 13.9 0.00 0.00 0.00 90 1010.0
20260505064932 71 201 6.1 15.6 0.00 0.00 0.00 90 1010.1
20260505064432 71 172 7.0 15.6 0.00 0.00 0.00 90 1010.2
20260505063932 71 151 6.1 18.2 0.00 0.00 0.00 90 1010.3
20260505063433 71 184 7.0 18.2 0.00 0.00 0.00 89 1010.2
20260505062931 71 170 7.0 13.9 0.00 0.00 0.00 89 1010.1
20260505062429 71 205 6.1 17.4 0.00 0.00 0.00 89 1010.2
20260505061931 71 141 6.1 17.4 0.00 0.00 0.00 89 1010.5
20260505061430 71 192 6.1 20.9 0.00 0.00 0.00 89 1010.5
20260505061152 71 152 7.0 20.9 0.00 0.00 0.00 89 1010.6
20260505060650 71 181 6.1 13.9 0.00 0.00 0.00 89 1010.6